Photometre #398[Standard_N] Utsteinen AOT

File : 20221127_398.hum

27/11/2022,01:22:39,TEMP=-13.0,BA=5.60,STAT.A=9.0,ExtBa=13.15
27/11/2022,01:34:17,TEMP=-12.8,BA=5.60,STAT.A=9.0,ExtBa=13.14
27/11/2022,01:47:15,TEMP=-12.7,BA=5.60,STAT.A=9.0,ExtBa=13.13
27/11/2022,02:01:55,TEMP=-12.5,BA=5.60,STAT.A=9.0,ExtBa=13.14
27/11/2022,02:18:43,TEMP=-12.4,BA=5.60,STAT.A=9.0,ExtBa=13.15
27/11/2022,02:38:24,TEMP=-12.1,BA=5.60,STAT.A=9.0,ExtBa=13.15
27/11/2022,03:02:01,TEMP=-11.3,BA=5.60,STAT.B=9.0,ExtBa=13.14
27/11/2022,03:12:54,TEMP=-11.0,BA=5.64,STAT.A=9.0,ExtBa=13.13
27/11/2022,03:24:50,TEMP=-10.8,BA=5.64,STAT.A=9.0,ExtBa=13.13
27/11/2022,03:38:00,TEMP=-10.5,BA=5.64,STAT.A=9.0,ExtBa=13.14
27/11/2022,03:52:41,TEMP=-9.7,BA=5.64,STAT.A=9.0,ExtBa=13.13
27/11/2022,04:09:13,TEMP=-9.0,BA=5.64,STAT.C=9.0,ExtBa=13.13
27/11/2022,04:28:05,TEMP=-9.0,BA=5.64,STAT.A=9.0,ExtBa=13.16
27/11/2022,04:49:59,TEMP=-9.1,BA=5.64,STAT.A=9.5,ExtBa=13.16
27/11/2022,05:15:57,TEMP=-7.7,BA=5.64,STAT.A=9.0,ExtBa=13.14
27/11/2022,05:47:47,TEMP=-8.5,BA=5.64,STAT.A=9.5,ExtBa=13.14
27/11/2022,06:28:46,TEMP=-10.6,BA=5.64,STAT.B=9.5,ExtBa=13.15
27/11/2022,06:44:35,TEMP=-11.0,BA=5.64,STAT.D=9.5,ExtBa=13.13
27/11/2022,06:59:35,TEMP=-10.9,BA=5.64,STAT.D=9.5,ExtBa=13.13
27/11/2022,07:14:37,TEMP=-11.2,BA=5.64,STAT.F,ExtBa=13.09
27/11/2022,07:29:35,TEMP=-11.5,BA=5.64,STAT.D=9.0,ExtBa=13.09
27/11/2022,07:44:35,TEMP=-11.4,BA=5.64,STAT.D=9.5,ExtBa=13.09
27/11/2022,07:59:35,TEMP=-10.9,BA=5.64,STAT.D=9.5,ExtBa=13.08
27/11/2022,08:14:37,TEMP=-10.0,BA=5.64,STAT.F,ExtBa=13.05
27/11/2022,08:29:36,TEMP=-9.5,BA=5.56,STAT.D=9.5,ExtBa=13.04
27/11/2022,08:44:36,TEMP=-9.5,BA=5.64,STAT.D=9.5,ExtBa=13.02
27/11/2022,08:59:36,TEMP=-8.8,BA=5.64,STAT.D=9.5,ExtBa=13.01
27/11/2022,09:14:38,TEMP=-8.7,BA=5.64,STAT.F,ExtBa=13.00
27/11/2022,09:29:37,TEMP=-8.6,BA=5.64,STAT.D=9.5,ExtBa=13.00
27/11/2022,09:44:37,TEMP=-8.4,BA=5.64,STAT.D=9.5,ExtBa=12.99
27/11/2022,09:59:37,TEMP=-8.4,BA=5.64,STAT.D=9.5,ExtBa=12.99
27/11/2022,10:14:39,TEMP=-8.3,BA=5.64,STAT.F,ExtBa=12.98
27/11/2022,10:29:37,TEMP=-7.6,BA=5.64,STAT.D=9.5,ExtBa=12.97
27/11/2022,10:44:37,TEMP=-6.1,BA=5.64,STAT.D=9.5,ExtBa=12.97
27/11/2022,10:59:37,TEMP=-3.9,BA=5.64,STAT.D=9.5,ExtBa=12.97
27/11/2022,11:14:38,TEMP=-1.2,BA=5.64,STAT.F,ExtBa=12.98
27/11/2022,11:29:36,TEMP=-0.5,BA=5.64,STAT.D=9.5,ExtBa=12.98
27/11/2022,11:44:36,TEMP=0.1,BA=5.64,STAT.D=9.5,ExtBa=12.97
27/11/2022,11:59:36,TEMP=1.0,BA=5.64,STAT.D=9.5,ExtBa=12.99
27/11/2022,12:14:37,TEMP=-0.9,BA=5.64,STAT.F,ExtBa=12.96
27/11/2022,12:29:35,TEMP=-3.0,BA=5.64,STAT.D=9.5,ExtBa=12.95